Temperature
19 19 18 18 18 18 18 18 18 18 18 18 18 18 18 18 19 19 18 18 18 18 18 18 18 18 18 18 17 17 17 17 17 17 17 17 16 16 16 16 16 16 16
18 18 19 19 19 18 18 18 18 18 18 18 18 18 18 18 18 18 18 18 18 18 18 18 18 18 18 18 17 17 17 17 17 17 17 17 17 16 16 16 16 16 16
19 19 18 19 19 19 19 19 18 18 18 18 18 18 18 18 18 18 18 18 18 18 18 18 18 18 18 18 18 17 17 17 17 17 17 17 17 16 16 16 16 16 16
19 19 19 19 19 19 19 18 18 18 18 18 18 19 19 19 18 18 18 18 18 18 18 18 18 18 18 18 18 18 17 17 17 17 17 17 17 16 16 16 16 16 16
19 19 19 19 19 18 18 18 18 18 18 19 19 19 19 19 19 19 18 18 18 18 18 18 18 18 18 18 18 18 17 17 17 17 17 17 17 17 16 16 16 16 16
19 19 19 19 18 18 18 18 18 18 18 18 19 19 19 19 19 19 19 19 19 18 18 18 18 18 18 18 18 18 18 17 17 17 17 17 17 17 16 16 16 16 16
19 19 19 18 18 18 18 18 18 18 18 18 18 19 19 19 19 19 19 19 19 19 19 18 18 18 18 18 18 18 17 17 17 17 17 17 17 17 16 16 16 16 16
19 18 18 18 18 18 18 18 18 18 18 18 18 18 18 19 19 19 19 19 19 19 19 18 18 18 18 18 18 18 17 17 17 17 17 17 17 17 16 16 16 16 16
19 18 18 18 18 18 18 18 18 18 18 18 18 18 18 18 19 19 19 19 19 19 19 18 18 18 17 17 17 17 17 17 17 17 17 17 16 16 16 16 16 16 16
18 18 18 18 18 18 18 18 18 18 18 18 18 18 18 18 18 18 18 18 18 18 18 18 18 18 17 17 17 17 17 17 17 17 16 16 16 16 16 16 16 16 16
18 18 18 18 18 18 18 18 18 18 18 18 18 18 18 18 18 18 18 18 18 18 18 18 17 17 17 17 17 17 17 17 17 16 16 16 16 16 16 16 16 16 16
18 18 18 18 18 18 18 18 18 18 18 18 18 18 17 17 18 18 17 17 17 17 17 17 17 17 17 17 16 16 16 16 16 16 16 16 16 16 16 15 15 15 15
18 18 18 18 18 18 18 18 17 17 17 17 17 17 17 17 17 17 17 17 17 17 17 17 16 16 16 16 16 16 16 16 16 16 15 15 15 15 15 15 15 15 15
18 18 18 18 18 18 17 17 17 17 17 17 17 17 17 17 17 17 17 17 16 16 16 16 16 16 16 15 15 15 15 15 15 15 15 15 15 15 15 14 14 14 14
18 18 18 18 18 17 17 17 17 17 17 17 17 17 17 17 17 17 17 16 16 16 15 15 15 15 15 15 15 15 15 15 15 14 14 14 14 14 14 14 14 14 13
18 18 18 17 17 17 17 17 17 16 16 16 16 16 16 16 16 16 16 16 16 16 15 15 15 15 14 14 14 14 14 14 14 14 13 13 13 13 13 13 13 13 13
18 18 18 17 17 17 16 16 16 16 16 16 16 16 16 16 16 16 16 16 16 16 15 14 14 14 14 14 14 13 13 13 13 13 13 13 13 13 13 13 12 12 12
18 17 17 17 17 17 16 16 16 16 16 16 16 16 16 16 16 16 16 15 15 15 15 14 14 13 13 13 13 13 13 12 12 12 12 12 12 12 12 12 12 12 12
17 17 17 17 16 16 16 16 16 16 15 15 15 15 15 16 15 15 15 15 15 15 15 14 13 13 13 13 12 12 12 12 12 12 12 12 11 11 11 11 11 11 11
17 17 16 16 16 16 15 15 15 15 15 15 15 15 15 15 15 15 15 15 14 14 14 13 13 13 12 12 12 12 12 11 11 11 11 11 11 11 11 11 11 11 11
16 16 16 16 16 15 15 15 15 15 15 14 14 14 14 14 14 14 14 14 14 14 13 13 12 12 12 12 12 11 11 11 11 11 11 11 11 10 10 10 10 10 10
16 16 16 16 16 15 15 15 15 14 14 14 14 14 14 14 14 14 14 13 13 13 13 13 12 12 12 11 11 11 11 11 11 10 10 10 10 10 10 10 10 9 9
16 16 16 15 15 15 15 14 14 14 14 14 14 13 13 13 13 13 13 13 13 13 13 12 12 12 11 11 11 11 11 11 11 10 10 10 10 10 9 9 9 9 9
16 15 15 15 15 14 14 14 14 14 14 13 13 13 13 13 13 13 13 12 12 12 12 12 12 11 11 11 11 11 11 11 10 10 10 10 9 9 9 9 9 9 9
15 15 15 15 15 14 14 14 14 13 13 13 13 13 13 13 13 12 12 12 12 12 11 11 11 11 11 11 11 11 11 10 10 10 10 10 9 9 9 9 9 8 8
15 15 14 14 14 14 14 14 13 13 13 13 13 13 12 12 12 12 12 12 12 11 11 11 11 11 11 10 10 10 10 10 10 10 9 9 9 9 9 8 8 8 8
Wind_Speed
1 1 1 1 3 3 3 2 2 2 2 2 2 2 1 1 3 8 10 15 15 14 14 14 13 13 13 12 12 12 11 11 11 11 11 11 11 10 10 10 9 9 10
2 1 1 1 1 2 2 2 2 2 2 2 2 2 2 2 3 7 10 13 15 15 15 15 15 15 15 14 14 14 13 13 13 13 13 13 12 12 12 11 11 11 11
1 1 1 2 2 3 2 2 2 2 3 4 4 3 3 3 3 6 9 10 12 15 17 17 17 17 16 16 15 15 15 15 14 14 14 14 14 13 13 13 13 12 12
1 2 2 2 3 3 2 2 2 3 2 2 3 3 3 3 5 6 8 10 12 12 16 19 19 18 17 17 16 16 16 16 16 16 16 16 15 15 14 14 13 13 13
2 2 2 1 3 2 2 3 2 2 2 2 4 4 4 4 4 7 7 9 11 12 12 17 21 19 18 16 15 15 15 16 16 16 16 16 16 16 16 16 15 15 15
2 2 2 1 2 1 1 2 1 2 2 3 6 4 3 4 4 5 6 7 9 10 11 11 14 15 16 15 15 14 15 15 15 16 16 16 16 17 17 16 17 17 17
2 2 2 1 1 1 2 3 2 3 4 3 3 3 4 4 5 4 4 3 3 5 7 9 11 10 10 13 13 13 13 12 12 13 13 14 14 14 14 15 16 17 17
3 3 1 2 2 2 3 4 3 3 3 2 2 2 2 3 2 3 2 2 2 2 3 6 8 8 8 8 9 12 12 12 12 11 11 12 12 12 13 13 15 16 16
2 3 1 2 3 2 3 4 4 4 3 3 2 2 2 2 1 1 1 1 1 1 1 2 4 6 7 6 8 11 13 12 12 11 10 11 11 11 11 13 13 14 16
2 3 3 2 2 3 3 4 3 3 3 3 2 3 3 2 1 1 1 0 1 1 1 1 2 2 4 4 4 7 11 12 10 9 9 9 9 10 11 12 12 13 13
2 2 2 1 2 2 3 3 2 2 3 3 2 2 3 3 3 2 2 1 1 1 2 1 1 2 3 3 3 4 7 8 7 7 7 7 7 8 8 9 10 10 11
1 1 1 1 1 2 3 3 2 2 2 2 2 2 2 2 2 2 2 2 0 1 1 1 1 2 3 3 3 5 7 7 6 5 4 4 4 4 4 4 5 5 6
0 0 1 1 1 2 2 2 2 2 2 2 2 2 2 2 2 2 2 2 1 1 0 1 1 3 3 5 6 7 8 7 6 5 4 2 1 1 1 1 1 1 1
2 2 1 1 1 2 2 2 2 2 1 2 2 2 2 2 1 2 2 1 1 1 0 1 2 3 5 7 9 10 10 11 9 8 6 5 4 4 3 3 3 2 1
1 2 2 2 2 3 3 3 2 2 2 2 2 2 2 2 1 1 1 1 2 2 0 1 2 4 5 8 9 9 11 12 12 11 9 8 7 6 6 6 5 4 4
3 3 3 3 3 3 3 2 2 2 2 2 1 3 3 2 2 1 1 1 0 1 1 1 2 2 4 6 10 10 11 13 12 11 11 10 10 9 8 8 7 7 6
3 3 3 3 3 3 3 2 3 3 4 4 3 3 3 4 3 3 2 2 2 2 2 1 2 3 4 5 7 8 9 9 9 10 10 11 11 12 12 11 10 9 8
2 2 3 3 3 4 3 4 4 5 5 5 5 5 5 4 4 3 3 2 2 2 3 3 2 3 4 4 5 4 6 7 8 9 11 12 13 13 12 12 12 12 11
3 3 3 3 4 4 4 5 5 5 5 6 6 6 6 5 5 4 4 4 3 3 4 5 4 3 3 3 4 5 6 5 7 9 11 12 13 13 13 13 12 12 12
3 4 4 3 4 5 5 5 5 5 6 7 7 7 7 7 6 5 5 5 4 5 5 5 5 3 3 3 3 4 4 3 4 5 8 9 11 13 13 13 13 13 12
5 4 4 4 5 5 6 6 5 6 6 6 7 7 8 10 11 8 6 5 5 4 4 5 4 4 3 2 2 2 3 3 3 3 3 5 7 8 9 10 11 12 12
5 5 5 6 7 7 9 9 6 6 6 6 6 6 7 9 10 11 11 10 8 6 5 4 4 4 4 3 2 2 2 2 2 1 2 3 4 4 6 7 9 10 10
5 5 6 7 7 8 11 11 9 6 7 7 6 6 7 8 8 6 6 9 10 10 7 5 5 4 3 2 2 2 2 2 2 1 2 2 3 4 5 7 8 8 8
5 5 6 6 7 8 10 10 8 6 7 7 7 7 7 7 7 6 6 8 8 8 7 6 5 4 4 3 2 1 2 3 3 2 2 2 2 3 4 6 6 6 6
5 5 6 6 7 6 8 8 7 4 6 7 8 8 7 6 9 8 6 6 7 6 9 11 9 8 7 6 4 3 2 2 2 1 1 1 1 2 3 3 5 5 4
5 6 6 6 6 6 7 9 7 3 5 6 6 7 10 9 9 9 5 5 5 4 4 5 5 5 6 7 8 4 2 2 2 2 2 2 0 1 1 2 3 5 4
Wind_Direction
93 81 98 182 210 188 179 182 189 217 230 229 235 230 244 231 140 140 156 170 174 179 184 190 194 197 199 200 201 202 203 203 202 201 202 203 203 203 203 205 208 208 207
71 39 209 264 260 224 197 206 213 188 219 228 234 220 206 223 174 159 161 177 185 189 193 197 200 203 205 206 206 208 209 211 210 209 210 211 212 212 213 214 215 216 216
138 252 265 237 265 255 210 221 259 227 225 222 223 225 202 216 196 182 177 181 190 200 203 204 206 207 209 210 211 212 213 215 216 216 216 216 217 217 220 221 222 223 223
205 255 263 249 266 259 226 209 241 250 253 252 242 230 214 200 200 203 197 196 195 201 206 209 209 210 212 214 216 217 217 219 221 221 222 220 219 219 221 224 226 227 228
252 250 267 268 263 260 258 257 209 255 258 265 259 238 228 220 205 214 209 209 202 195 193 203 208 211 213 214 218 221 221 223 224 224 225 224 222 221 223 226 230 230 230
281 294 274 265 286 294 294 288 295 277 266 260 268 269 263 254 235 218 215 210 203 194 192 187 197 210 212 214 217 220 222 223 224 226 228 226 224 224 223 226 230 231 231
296 287 309 328 290 285 289 297 283 271 256 248 271 285 272 246 237 231 233 217 192 186 178 170 175 186 196 211 215 218 221 221 220 221 223 224 225 225 225 226 229 231 231
275 263 235 265 268 262 270 275 268 261 261 241 224 258 285 290 270 256 237 206 199 158 149 164 163 175 178 184 202 211 215 218 219 219 221 221 222 223 226 228 230 231 231
251 283 270 274 278 259 254 255 258 245 254 271 233 208 221 239 273 272 231 189 153 145 143 121 146 168 179 178 186 205 210 217 220 220 221 222 224 225 229 230 231 232 231
255 259 265 262 281 288 280 267 267 266 258 263 259 228 233 243 217 279 308 171 174 142 99 105 115 147 173 174 168 179 199 210 215 220 223 224 226 227 231 235 237 235 233
248 268 264 282 281 286 300 293 306 286 265 258 262 257 249 248 243 228 252 300 6 69 93 79 64 82 106 134 145 159 175 187 199 212 220 226 230 232 237 241 243 242 238
241 261 295 303 300 298 300 298 300 293 285 280 279 274 252 237 235 228 221 233 232 356 64 75 69 67 83 97 111 137 144 161 173 183 197 209 224 235 239 241 243 244 240
351 352 332 351 322 307 309 313 310 303 300 294 285 277 267 253 254 235 223 228 204 264 20 41 61 80 88 87 86 99 112 123 130 135 148 160 182 207 206 215 223 232 259
18 32 17 349 346 339 333 329 322 307 313 306 304 296 292 284 278 242 226 209 227 258 53 85 55 59 74 86 93 91 87 89 89 89 91 94 93 84 75 77 74 62 52
20 18 22 19 4 2 345 349 353 333 343 351 339 337 322 324 316 302 277 211 208 222 272 48 49 49 72 87 96 92 87 85 83 82 80 78 78 80 78 74 71 68 64
18 14 19 19 14 10 355 357 15 360 23 28 21 15 8 354 344 1 10 342 141 171 179 71 68 66 74 87 94 90 86 84 79 81 80 77 75 76 75 72 69 66 62
20 16 15 20 19 14 6 19 39 24 35 34 32 32 24 23 19 19 34 43 57 112 129 93 77 83 78 82 93 92 94 92 85 84 83 80 77 73 70 69 68 66 64
44 33 25 26 30 31 28 37 42 39 39 39 36 34 29 34 35 27 31 43 68 104 127 123 95 82 77 90 101 104 100 92 91 91 87 83 82 78 74 72 69 66 65
53 45 46 45 44 39 42 45 47 52 51 49 45 44 35 36 37 34 35 34 50 76 92 109 99 82 82 85 96 86 84 90 96 96 91 83 82 80 76 72 70 69 69
73 59 53 52 54 51 43 47 58 58 62 63 59 52 44 43 37 31 46 42 55 71 86 99 103 97 84 66 81 87 85 67 73 91 96 95 86 77 74 72 69 69 70
79 68 60 53 51 57 41 38 59 71 67 71 72 70 65 63 59 53 59 51 58 70 84 94 103 99 90 82 73 89 98 97 80 87 98 105 100 87 80 75 73 73 74
73 67 64 61 56 51 29 34 50 69 64 63 65 75 83 65 63 65 65 61 63 72 76 85 94 101 97 89 76 96 104 105 81 69 94 98 110 101 102 95 92 86 80
84 73 74 76 71 47 33 34 43 66 67 59 55 51 60 56 51 51 69 71 62 58 68 87 87 89 95 84 92 91 83 84 88 102 93 93 98 98 107 108 113 105 95
95 87 83 84 82 59 40 36 36 79 76 67 59 55 63 54 40 37 59 67 64 53 58 73 78 76 81 69 62 85 113 108 99 78 84 99 117 117 115 131 140 128 117
103 96 89 85 83 65 38 31 19 93 90 81 73 59 55 54 30 38 59 71 76 72 73 83 88 88 83 71 54 57 50 75 90 81 39 50 127 123 124 137 165 166 155
112 106 96 88 85 76 44 33 19 83 101 102 94 78 58 50 39 42 55 62 61 50 59 81 86 88 90 78 64 56 41 41 68 73 23 359 81 118 120 134 157 185 195
Height
1557 1557 1558 1558 1558 1558 1558 1559 1559 1560 1561 1562 1562 1563 1564 1564 1564 1564 1564 1564 1565 1566 1566 1567 1567 1568 1569 1570 1570 1571 1572 1573 1575 1576 1577 1578 1579 1580 1581 1582 1583 1584 1585
1556 1557 1557 1557 1558 1558 1558 1558 1559 1559 1559 1560 1561 1562 1563 1563 1563 1563 1563 1564 1564 1565 1565 1565 1566 1567 1567 1568 1569 1570 1571 1572 1573 1574 1575 1576 1577 1578 1579 1580 1581 1582 1583
1556 1556 1556 1557 1557 1557 1558 1558 1558 1558 1559 1560 1560 1561 1561 1562 1562 1562 1562 1563 1563 1563 1564 1564 1565 1565 1566 1567 1567 1568 1570 1570 1571 1572 1573 1574 1575 1576 1577 1578 1579 1580 1581
1555 1555 1555 1555 1556 1556 1557 1557 1557 1558 1558 1558 1559 1559 1560 1560 1560 1561 1561 1561 1561 1562 1562 1562 1563 1564 1564 1565 1566 1567 1567 1568 1569 1570 1571 1572 1573 1574 1575 1576 1577 1577 1578
1554 1554 1554 1554 1554 1555 1555 1555 1555 1556 1556 1556 1557 1557 1557 1558 1558 1558 1559 1559 1559 1560 1560 1560 1561 1561 1562 1563 1563 1564 1565 1565 1566 1567 1568 1569 1570 1570 1571 1572 1573 1574 1575
1553 1553 1553 1553 1553 1553 1553 1553 1553 1553 1554 1554 1555 1555 1555 1555 1556 1556 1557 1557 1557 1557 1557 1558 1558 1559 1559 1560 1561 1561 1562 1562 1563 1564 1565 1565 1566 1567 1568 1568 1569 1570 1571
1552 1551 1551 1551 1551 1551 1551 1551 1550 1551 1551 1552 1552 1552 1552 1552 1552 1553 1554 1555 1554 1554 1555 1555 1555 1556 1557 1557 1557 1558 1559 1559 1560 1560 1561 1562 1562 1563 1564 1564 1565 1566 1567
1550 1550 1549 1549 1549 1549 1548 1548 1548 1548 1548 1550 1550 1550 1550 1551 1550 1550 1550 1551 1551 1552 1552 1553 1553 1553 1554 1554 1554 1555 1555 1556 1556 1557 1557 1558 1559 1559 1560 1560 1561 1562 1562
1548 1548 1548 1547 1547 1547 1546 1546 1546 1546 1546 1546 1547 1548 1548 1547 1547 1547 1547 1547 1547 1549 1550 1551 1551 1551 1551 1551 1551 1552 1552 1553 1553 1553 1554 1554 1555 1556 1556 1556 1557 1557 1558
1547 1547 1546 1546 1545 1545 1545 1544 1544 1543 1543 1543 1544 1545 1545 1545 1546 1545 1546 1545 1546 1547 1548 1548 1548 1548 1549 1549 1548 1548 1549 1550 1550 1550 1551 1551 1552 1552 1552 1553 1553 1553 1554
1546 1545 1545 1544 1543 1543 1543 1542 1542 1541 1541 1541 1541 1542 1542 1543 1543 1544 1543 1544 1545 1545 1545 1546 1546 1546 1546 1546 1545 1545 1546 1546 1547 1547 1547 1548 1548 1548 1549 1549 1549 1549 1550
1545 1544 1544 1543 1542 1541 1541 1540 1539 1539 1538 1538 1538 1538 1539 1539 1540 1540 1540 1541 1542 1543 1543 1543 1544 1544 1543 1543 1543 1543 1543 1544 1544 1544 1544 1545 1545 1545 1545 1545 1545 1545 1546
1544 1543 1543 1542 1541 1540 1539 1538 1538 1537 1537 1536 1536 1536 1536 1537 1537 1538 1538 1539 1540 1541 1541 1541 1541 1541 1541 1541 1540 1540 1541 1541 1541 1541 1541 1541 1541 1541 1542 1542 1542 1542 1542
1543 1543 1542 1541 1540 1539 1538 1537 1536 1535 1535 1535 1534 1534 1534 1534 1535 1536 1537 1538 1538 1539 1539 1540 1540 1540 1539 1539 1539 1539 1539 1539 1539 1539 1539 1539 1539 1539 1539 1539 1539 1538 1538
1542 1542 1541 1540 1539 1538 1537 1536 1535 1534 1534 1533 1533 1533 1533 1533 1533 1534 1535 1536 1537 1536 1537 1538 1538 1538 1538 1538 1538 1538 1538 1538 1537 1537 1537 1537 1536 1536 1536 1536 1536 1536 1536
1541 1541 1540 1539 1538 1537 1536 1535 1534 1533 1533 1533 1532 1532 1531 1531 1531 1532 1533 1533 1534 1535 1535 1536 1537 1536 1536 1536 1537 1537 1537 1537 1537 1536 1535 1535 1535 1535 1535 1534 1534 1534 1533
1540 1539 1539 1538 1537 1536 1535 1534 1533 1533 1532 1532 1532 1531 1531 1531 1530 1530 1531 1531 1532 1533 1533 1535 1536 1536 1535 1536 1536 1536 1536 1536 1536 1536 1535 1535 1534 1533 1533 1533 1532 1532 1531
1539 1539 1538 1537 1536 1535 1535 1534 1533 1533 1532 1532 1531 1531 1531 1530 1530 1530 1530 1531 1531 1532 1533 1533 1534 1535 1535 1536 1536 1536 1536 1536 1536 1536 1535 1535 1534 1533 1533 1532 1531 1531 1530
1539 1538 1538 1537 1536 1535 1535 1534 1533 1533 1532 1532 1531 1531 1531 1530 1530 1530 1530 1530 1531 1532 1532 1533 1534 1535 1535 1536 1536 1536 1536 1536 1536 1536 1536 1535 1535 1534 1533 1533 1532 1530 1530
1538 1538 1537 1537 1536 1536 1535 1535 1534 1533 1533 1533 1532 1532 1531 1531 1531 1530 1530 1530 1531 1532 1533 1533 1534 1535 1536 1536 1537 1537 1537 1537 1537 1537 1537 1536 1536 1535 1534 1533 1532 1531 1530
1539 1538 1538 1537 1537 1536 1536 1536 1535 1535 1534 1534 1534 1533 1533 1532 1532 1532 1531 1531 1531 1532 1533 1533 1534 1535 1536 1537 1537 1538 1538 1539 1539 1539 1538 1537 1536 1535 1535 1534 1533 1532 1531
1539 1539 1538 1538 1537 1537 1537 1537 1536 1536 1536 1535 1535 1535 1534 1534 1533 1533 1533 1533 1533 1533 1533 1534 1535 1535 1537 1537 1538 1539 1539 1539 1539 1540 1539 1538 1538 1536 1535 1534 1534 1533 1532
1539 1539 1539 1539 1538 1538 1538 1538 1537 1537 1537 1537 1536 1536 1536 1535 1535 1535 1534 1534 1535 1535 1536 1536 1536 1537 1537 1538 1538 1539 1539 1540 1540 1540 1540 1539 1539 1538 1537 1535 1535 1534 1533
1539 1539 1539 1539 1539 1539 1539 1539 1539 1539 1538 1538 1538 1537 1537 1537 1537 1536 1536 1536 1537 1537 1537 1537 1538 1538 1539 1539 1540 1540 1540 1540 1541 1541 1540 1540 1539 1539 1538 1537 1536 1535 1534
1539 1540 1540 1540 1540 1540 1540 1540 1540 1540 1540 1539 1539 1539 1539 1538 1538 1538 1538 1538 1538 1539 1539 1539 1539 1540 1540 1540 1541 1541 1541 1541 1541 1541 1541 1540 1540 1539 1538 1538 1537 1536 1534
1539 1540 1540 1541 1541 1541 1541 1541 1541 1541 1541 1541 1540 1540 1540 1540 1540 1540 1540 1540 1540 1540 1541 1541 1541 1541 1541 1541 1542 1541 1541 1541 1541 1541 1541 1541 1540 1539 1538 1538 1537 1536 1535